Location: *
(51.5086°N, 0.1283°W)
Time: 13:15:46
(UTC+00:00)

Daily predictions for brighter satellites

Satellite Brightness Start Highest point End
(mag) Time Altitude Azimuth Time Altitude Azimuth Time Altitude Azimuth
CENTAUR R/B 3.7 16:41:08 10° W 16:47:19 40° NNW 16:54:28 10° NE
Cosmos 1656 Rocket 3.7 16:46:58 10° SSW 16:52:29 89° WNW 16:57:59 10° NNE
Cosmos 1340 Rocket 2.8 16:51:28 10° S 16:55:27 69° E 16:59:31 10° NNE
Okean O Rocket 2.6 16:52:35 10° S 16:56:54 53° W 17:01:13 10° NNW
Cosmos 1825 2.1 16:54:15 10° N 16:58:04 82° E 17:01:51 10° SSE
ALOS 3.4 16:54:14 10° S 16:58:44 49° W 17:03:17 10° NNW
GEOS 3 Rocket 4.3 16:54:05 10° NE 16:58:58 40° ESE 17:03:54 10° SSW
NOAA 12 4.4 16:55:03 10° SE 17:00:05 44° ENE 17:05:09 10° N
Cosmos 2123 Rocket 4.0 16:55:10 10° S 17:01:19 68° E 17:07:28 10° NNE
CZ-4 R/B 2.7 16:58:23 10° ESE 17:01:29 21° ENE 17:04:34 10° NNE
ATLAS 3B R/B 3.7 16:57:13 10° W 17:03:16 35° NNW 17:09:21 10° NE
Cosmos 1725 Rocket 4.1 16:59:31 10° N 17:05:54 89° W 17:12:14 10° S
Cosmos 2219 3.2 17:01:48 10° NNW 17:07:25 66° ENE 17:13:00 10° SE
SMAP 3.0 17:02:58 10° SSE 17:07:36 73° ENE 17:12:16 10° N
Cosmos 1408 Rocket 4.2 17:03:51 10° NNW 17:08:13 63° W 17:12:35 10° S
Cosmos 2016 Rocket 4.5 17:04:37 10° NNW 17:10:59 69° W 17:17:17 10° S
Cosmos 1238 Rocket 3.1 17:06:45 10° N 17:11:39 60° ENE 17:15:36 10° SSE
Cosmos 1500 Rocket 3.5 17:08:44 10° N 17:13:10 74° ENE 17:17:30 10° SSE
Cosmos 2369 Rocket 3.5 17:09:52 10° WSW 17:15:01 36° NW 17:20:12 10° NNE
Cosmos 1689 Rocket 4.0 17:13:51 10° N 17:16:35 31° WNW 17:19:19 10° SW
Cosmos 1633 Rocket 4.2 17:15:33 10° NNE 17:18:58 22° ENE 17:22:23 10° ESE
Cosmos 1633 3.7 17:18:15 10° NNE 17:21:11 22° ENE 17:24:06 10° ESE
TELKOM 3 4.1 17:22:38 10° W 17:24:41 34° SSW 17:26:20 13° SE
COSMO-SKYMED 1 3.6 17:21:32 10° NE 17:25:08 25° E 17:28:44 10° SSE
Elektron 3 3.7 17:23:41 10° SW 17:26:59 81° NW 17:29:07 17° NE
COBE Rocket 4.1 17:23:02 10° NNE 17:27:46 48° E 17:32:20 10° S
Cosmos 1666 Rocket 4.3 17:24:52 10° N 17:28:46 30° ENE 17:32:37 10° SE
CSL-04 Rocket 4.1 17:23:54 10° SE 17:28:47 37° ENE 17:33:37 10° N
Cosmos 2344 3.6 17:21:31 10° SW 17:29:01 83° SE 17:37:34 10° NE
Cosmos 1607 3.9 17:22:50 10° NW 17:29:04 80° NE 17:35:21 10° SE
FengYun 1-2 T 4.4 17:23:58 10° SE 17:29:16 49° ENE 17:34:34 10° N
Cosmos 1455 3.4 17:25:50 10° SSW 17:29:26 43° WNW 17:33:03 10° N
Cosmos 2227 Rocket 2.2 17:24:15 10° NNW 17:29:54 62° NE 17:35:30 10° SE
Aureole 2 Rocket 4.1 17:27:08 10° WSW 17:30:14 32° WNW 17:33:28 10° N
Cosmos 2297 Rocket 2.2 17:24:43 10° NNW 17:30:23 66° ENE 17:36:01 10° SE
Sich 1 3.3 17:31:06 10° N 17:35:15 43° ENE 17:39:24 10° SE
CZ-4B R/B 4.3 17:33:22 10° NNW 17:35:20 15° WNW 17:37:19 10° W
Cosmos 2084 3.9 17:34:05 10° NW 17:38:24 64° SW 17:42:34 10° SSE
CORIOLIS 4.4 17:33:00 10° S 17:38:24 76° WSW 17:43:52 10° NNW
Meteor 2-2 Rocket 4.3 17:34:09 10° S 17:39:53 58° E 17:45:32 10° NNE
YAOGAN 6 2.8 17:37:22 10° SE 17:40:42 42° ENE 17:44:02 10° N
USA 215 3.3 17:37:20 14° E 17:43:02 69° NNE 17:49:33 10° WNW
NOSS 7 (D) 4.0 17:40:10 10° SSW 17:43:03 56° SE 17:44:02 33° ENE
H-2A R/B 3.5 17:41:01 10° S 17:44:49 56° W 17:48:37 10° NNW
Envisat 2.9 17:42:03 10° SSE 17:47:08 81° ENE 17:52:15 10° NNW
USA 229 DEB 4.0 17:43:54 10° S 17:50:02 43° ESE 17:54:26 20° ENE
USA 229 4.0 17:44:03 10° S 17:50:09 43° ESE 17:54:29 20° ENE
Cosmos 1862 3.7 17:46:40 10° N 17:50:25 38° ENE 17:54:08 10° SE
Cosmos 2034 Rocket 4.3 17:44:45 10° N 17:50:48 44° ENE 17:56:52 10° SE
Meteor 1-27 4.2 17:47:04 10° S 17:52:44 89° W 17:58:32 10° NNE
Cosmos 1943 Rocket 4.2 17:49:49 10° W 17:54:09 22° NW 17:58:33 10° NNE
Meteor 2-10 Rocket 4.4 17:49:48 10° SSW 17:54:38 49° WNW 17:59:34 10° N
NOSS 3-1 (A) 4.3 17:50:57 10° S 17:55:34 27° ESE 17:57:11 24° E
Cosmos 2082 3.7 17:50:37 10° NNW 17:56:13 63° NE 18:01:47 10° SE
Cosmos 2263 Rocket 3.4 17:51:58 10° NNW 17:56:15 22° NE 17:57:19 21° NE
Genesis I 3.3 17:52:30 10° SSW 17:56:29 61° SE 17:58:14 30° ENE
NOSS 3-1 (C) 3.8 17:51:34 10° S 17:56:45 40° ESE 17:59:56 24° ENE
YAOGAN 1 2.6 17:53:28 10° SE 17:57:40 53° ENE 18:01:54 10° N
Cosmos 1470 Rocket 4.4 17:55:31 10° N 17:59:29 29° ENE 17:59:35 29° ENE
Okean-O 3.3 17:57:06 10° S 18:01:29 58° WSW 18:05:53 10° NNW
Cosmos 2221 3.2 17:59:46 10° SSW 18:04:01 56° WNW 18:08:19 10° N
SeaSat 1 3.6 18:03:03 10° S 18:07:46 45° WSW 18:12:31 10° NW
Meteor 2-11 Rocket 4.5 18:02:05 10° N 18:08:05 54° ENE 18:14:04 10° SSE
USA 116 4.3 18:09:07 26° NE 18:11:14 45° E 18:15:54 10° S
Cosmos 1697 Rocket 3.4 18:06:51 10° SSE 18:11:44 31° ESE 18:12:06 30° E
Cosmos 1356 Rocket 3.3 18:08:08 10° S 18:12:16 70° E 18:15:46 15° NNE
Geosat 4.0 18:08:09 14° NNE 18:12:35 82° WNW 18:17:37 10° SW
SKYMED 2 3.4 18:09:11 10° NNE 18:13:33 69° ESE 18:17:52 10° S
ATLAS 5 CENTAUR R/B 2.8 18:11:03 10° NW 18:16:39 63° SW 18:23:05 10° SSE
CZ-3B R/B 2.9 18:14:14 10° W 18:16:41 54° N 18:16:51 53° N
Lacrosse 4 Rocket 3.0 18:13:54 10° SSE 18:15:35 19° SSE 18:15:35 19° SSE
Cosmos 1680 Rocket 4.3 18:16:42 10° SSE 18:20:18 30° SE 18:20:18 30° SE
Cosmos 2278 Rocket 4.5 18:27:15 10° N 18:28:09 10° N 18:29:05 10° NNE
H-2A R/B 3.5 18:31:12 23° NNE 18:31:12 23° NNE 18:33:54 10° N
Cosmos 1867 3.9 18:24:17 10° SW 18:29:43 64° NW 18:32:48 26° NNE
Ariane Rocket 3.0 18:28:23 38° ESE 18:30:03 55° ENE 18:35:01 10° N
Cosmos 724 4.1 18:30:16 10° NW 18:36:11 77° NE 18:38:19 41° SE
CZ-4 R/B 2.2 18:32:08 10° S 18:36:13 52° W 18:40:15 10° NNW
GEOS 3 Rocket 4.1 18:34:18 26° NNE 18:37:10 57° NW 18:42:18 10° WSW
USA 238 DEB 4.5 18:32:50 10° NW 18:39:18 37° NNE 18:41:13 32° NE
CENTAUR R/B 3.9 18:33:30 10° WNW 18:39:57 34° N 18:42:52 27° NE
Cosmos 1464 Rocket 4.2 18:34:52 10° NNW 18:41:02 69° W 18:47:06 10° S
Cosmos 1869 4.4 18:37:17 10° SSW 18:41:06 44° WNW 18:44:53 10° N
NOAA 11 4.1 18:36:45 10° SSE 18:42:11 88° ENE 18:47:39 10° NNW
MOS 1 4.3 18:43:14 51° E 18:43:38 52° ENE 18:49:07 10° N
CZ-2D R/B 3.3 18:44:40 75° NNW 18:44:40 75° NNW 18:48:17 10° NNW
Cosmos 923 Rocket 3.9 18:39:51 10° S 18:45:00 62° ESE 18:45:14 62° E
Cosmos 2056 Rocket 3.4 18:43:07 10° NNW 18:48:06 62° NE 18:48:06 62° NE
Cosmos 1624 Rocket 3.9 18:43:03 10° NNW 18:48:24 65° ENE 18:48:43 63° E
Cosmos 1656 3.5 18:45:05 10° SSW 18:50:38 89° SE 18:52:28 44° NNE
Cosmos 1939 Rocket 3.0 18:53:38 75° WSW 18:53:43 76° WSW 18:57:53 10° NNW
ATLAS 3B R/B 3.7 18:50:03 10° NW 18:55:46 29° N 18:57:16 27° NNE
Cosmos 1633 4.3 18:52:47 10° NNW 18:56:07 33° W 18:59:24 10° SSW
Cosmos 1633 Rocket 3.9 18:52:47 10° NNW 18:57:04 50° W 19:01:20 10° S
COSMO-SKYMED 1 3.7 18:57:26 11° N 19:01:29 43° WNW 19:05:35 10° SW
DMSP B5D1-3 4.5 19:11:57 80° NNW 19:12:11 83° WNW 19:17:20 10° SSW
Cosmos 2227 Rocket 4.1 19:08:51 10° NW 19:13:34 28° WSW 19:18:16 10° SSW
Cosmos 2297 Rocket 4.3 19:09:26 10° NW 19:14:00 25° WSW 19:18:32 10° SSW
Cosmos 1980 Rocket 3.9 19:09:14 10° S 19:10:50 19° S 19:10:50 19° S
Gblst 52 Del rocket 4.2 19:07:54 10° W 19:14:41 89° N 19:15:03 80° E
USA 215 3.5 19:24:42 50° S 19:26:10 61° SW 19:32:40 10° WNW
NOSS 3-2 (C) 4.5 19:22:34 10° NW 19:29:08 41° NNE 19:29:11 41° NNE
BREEZE-M DEB (TANK) 4.2 19:25:11 10° W 19:28:14 29° W 19:28:14 29° W
Cosmos 2369 3.9 19:25:25 10° SW 19:30:29 68° WSW 19:30:29 68° WSW
USA 229 DEB 4.0 19:34:14 10° WSW 19:40:49 61° NW 19:41:54 54° N
USA 229 4.0 19:34:21 10° WSW 19:40:56 61° NW 19:41:57 55° N
Cosmos 2263 Rocket 3.1 19:35:29 10° NNW 19:39:01 40° NNW 19:39:01 40° NNW
NOSS 3-1 (A) 3.7 19:40:00 10° SW 19:44:40 61° WSW 19:44:40 61° WSW
NOSS 3-1 (C) 3.8 19:41:38 10° WSW 19:47:21 58° NW 19:47:21 58° NW
Cosmos 1697 Rocket 3.7 19:49:52 10° SW 19:53:53 43° WSW 19:53:53 43° WSW
Lacrosse 4 Rocket 4.4 19:51:50 10° WSW 19:51:57 11° WSW 19:51:57 11° WSW
H-2A R/B 4.0 20:11:50 24° NNW 20:11:50 24° NNW 20:13:54 10° NNW
CENTAUR R/B 3.8 20:24:49 10° NW 20:30:03 43° NNW 20:30:03 43° NNW
ATLAS 3B R/B 4.2 20:41:28 10° NW 20:44:31 27° NNW 20:44:31 27° NNW
